Finales Départementales des Jeunes

Compétition Départementale

LENS

Le Dimanche 02 Juin 2013

Bassin de 50m

50 Papillon Dames

Séries

Nom Année Temps Pts Club Pays
1 DUHAMEL Cyrielle 2000 0:32:58 1028 SN LENS FRA
2 REMY Adeline 2000 0:34:61 920 STADE BÉTHUNE PÉLICAN CLUB FRA
3 CABO Amelie 2001 0:36:35 832 RACING CLUB ARRAS FRA
4 THERY Celine 2000 0:36:68 815 ASL CANETONS LILLERS FRA
5 KOUADIO PATINIER Lucie 2000 0:36:71 814 BERCK NATATION FRA
6 VANHOYE Célia 2000 0:36:80 809 STADE BÉTHUNE PÉLICAN CLUB FRA
7 BATELLI Maeva 2000 0:36:92 804 SN LENS FRA
8 CADIOU Chloe 2000 0:37:45 778 STADE BÉTHUNE PÉLICAN CLUB FRA
9 QUEVA Camille 2002 0:37:62 770 RACING CLUB ARRAS FRA
10 BERDIN Emma 2000 0:37:82 761 CALAIS NATATION FRA
11 FICHAUX Ambre 2001 0:37:97 753 RACING CLUB ARRAS FRA
12 GRAS Blandine 2001 0:38:28 739 CN DIVION FRA
13 HAMILLE Lena 2001 0:38:46 731 US MONTREUIL-SUR-MER FRA
14 NOYELLE Margaux 2000 0:38:65 722 BERCK NATATION FRA
15 PROUST Zélie 2000 0:38:69 720 USO BRUAY-LA-BUISSIERE FRA
16 LEURS Chloe 2001 0:38:71 719 SN LENS FRA
17 MARCINIAK Marie 2001 0:38:82 714 SN LENS FRA
18 BERRABAH Myriem 2001 0:39:06 703 CN HÉNIN-BEAUMONT FRA
19 ARZUL Agathe 2002 0:39:14 699 RACING CLUB ARRAS FRA
20 LEFEBVRE Sofia 2000 0:39:28 693 RACING CLUB ARRAS FRA
21 VANDERZYPPE Jeanne 2000 0:39:34 690 BERCK NATATION FRA
22 ROCHE-MATHON Leah 2001 0:39:57 680 RACING CLUB ARRAS FRA
23 DELPLANQUE Claire 2002 0:39:72 673 CN HÉNIN-BEAUMONT FRA
24 ROUSSEL Marie 2002 0:39:76 672 ENC ACHICOURT FRA
25 PILLE Emma 2000 0:40:05 659 RACING CLUB ARRAS FRA
26 LUCAS Rebecca 2000 0:40:10 657 CALAIS NATATION FRA
27 DE PAOLI Fiona 2000 0:40:18 653 RACING CLUB ARRAS FRA
28 WALLART Agathe 2000 0:40:20 652 SN LENS FRA
29 LENGLEN Julie 2000 0:40:29 648 CALAIS NATATION FRA
30 CATEZ Oceane 2001 0:40:41 643 STADE BÉTHUNE PÉLICAN CLUB FRA
31 DECOONINCK Lea 2000 0:40:51 639 CN COURRIÈRES FRA
32 TEMPEZ Chloe 2003 0:40:69 631 CN FREVENT FRA
33 ZAJAC Margot 2001 0:40:72 630 STADE BÉTHUNE PÉLICAN CLUB FRA
34 DELATTRE Garance 2002 0:40:73 629 DAUPHINS ST-OMER FRA
35 LUX Angéline 2001 0:40:78 627 CN COURRIÈRES FRA
36 TRENEL Maurine 2001 0:40:84 625 RACING CLUB ARRAS FRA
37 COLLIER Eva 2003 0:41:00 618 CALAIS NATATION FRA
38 CASTELAN Leana 2001 0:41:13 612 BERCK NATATION FRA
39 SGARD LAVIEVILLE Justine 2002 0:41:20 609 CALAIS NATATION FRA
40 CORION Florine 2000 0:41:38 602 CALAIS NATATION FRA
41 DELATTRE Lison 2000 0:41:55 594 DAUPHINS ST-OMER FRA
42 TIRMARCHE Clémence 2001 0:41:57 594 STADE BÉTHUNE PÉLICAN CLUB FRA
43 BRUTIER Clara 2000 0:41:68 589 CALAIS NATATION FRA
44 COUPIN Estelle 2001 0:41:90 580 CALAIS NATATION FRA
45 NOTEBAERT Elsa 2001 0:41:92 579 SN LENS FRA
46 DENUDT Juliette 2000 0:42:10 572 CALAIS NATATION FRA
47 VILLAYES Olivia 2003 0:42:27 565 SN LENS FRA
48 LANCEZ Emma 2001 0:42:45 557 RACING CLUB ARRAS FRA
49 CIURLIK Pauline 2000 0:42:48 556 DAUPHINS ST-OMER FRA
50 MATHUREL Valentine 2003 0:42:56 553 US MONTREUIL-SUR-MER FRA
51 DELABRE Justine 2000 0:42:77 545 SN LENS FRA
52 KONRAD Lory 2000 0:42:94 538 CN COURRIÈRES FRA
53 HENOCQ Charlotte 2001 0:42:96 537 RACING CLUB ARRAS FRA
54 SERGENT Bulle 2000 0:43:02 535 DAUPHINS ST-OMER FRA
55 CREPIN Léa 2002 0:43:52 515 BERCK NATATION FRA
56 ABACHIN Apolline 2001 0:43:67 509 CALAIS NATATION FRA
57 RIBEIRO Léa 2001 0:43:75 506 DAUPHINS ST-OMER FRA
58 WACKENS Capucine 2001 0:43:83 503 SN LENS FRA
59 HERBAUX-VERMEULEN Anais 2002 0:44:32 484 ENC ACHICOURT FRA
60 VAUCHEL Emma 2000 0:44:36 483 DAUPHINS ST-OMER FRA
61 MEDJAHED Eliana 2000 0:44:47 479 HIPPO. MONTIGNY-EN-GOHELLE FRA
62 CARNEZ Oceane 2002 0:44:50 478 CN DIVION FRA
63 COULPIER Chana 2001 0:44:97 460 BERCK NATATION FRA
64 VIDELAINE Manuella 2002 0:45:12 455 ASL CANETONS LILLERS FRA
65 GIVERN Maëva 2002 0:45:28 449 BERCK NATATION FRA
66 CAUCHARD Axelle 2002 0:45:33 447 ASL CANETONS LILLERS FRA
67 WAREMBOURG Eulalie 2002 0:45:38 445 RACING CLUB ARRAS FRA
68 HERBAUT Zéline 2002 0:45:61 437 CALAIS NATATION FRA
69 DIDIER Maëlle 2003 0:45:73 433 RACING CLUB ARRAS FRA
70 TROLLE Louise 2001 0:45:76 432 US MONTREUIL-SUR-MER FRA
71 SABRE Lucie 2002 0:45:81 430 SN LENS FRA
72 NOWACZYK Lison 2003 0:45:81 430 AUCHEL NATATION FRA
73 VERHAMME Mallaury 2002 0:46:39 409 US MONTREUIL-SUR-MER FRA
74 MORTIER Philippine 2002 0:46:55 404 BERCK NATATION FRA
75 DECOUVELAERE Manon 2001 0:46:60 402 STADE BÉTHUNE PÉLICAN CLUB FRA
76 GALLOIS Clemence 2001 0:46:67 400 ASL CANETONS LILLERS FRA
77 OLESINSKI Anaïs 2002 0:46:73 398 USO BRUAY-LA-BUISSIERE FRA
78 BOCAERT Camille 2004 0:46:76 397 US MONTREUIL-SUR-MER FRA
79 JOETS Clemence 2002 0:46:83 394 STADE BÉTHUNE PÉLICAN CLUB FRA
80 JASINSKI Anya 2003 0:46:96 390 STADE BÉTHUNE PÉLICAN CLUB FRA
81 LESMARIE Lara 2001 0:47:06 387 SN LENS FRA
82 LEFEBVRE Albane 2000 0:47:11 385 STADE BÉTHUNE PÉLICAN CLUB FRA
83 DELPLANQUE Justine 2003 0:47:39 376 US MONTREUIL-SUR-MER FRA
84 VESIN Romane 2003 0:47:42 375 CN COURRIÈRES FRA
85 LOVINY Margaux 2003 0:47:80 362 RACING CLUB ARRAS FRA
86 NOSKOWIAK Mathilde 2001 0:48:03 355 US MONTREUIL-SUR-MER FRA
87 DELAIRE Anaelle 2004 0:48:62 336 STADE BÉTHUNE PÉLICAN CLUB FRA
88 MARINELLI Lucy 2002 0:48:71 333 DAUPHINS ST-OMER FRA
89 SZUMNY Chloe 2003 0:48:95 326 ASL CANETONS LILLERS FRA
90 DEWYNTER Solene 2001 0:49:09 321 DAUPHINS ST-OMER FRA
91 BAYARD Kristina 2003 0:49:64 305 DAUPHINS ST-OMER FRA
92 DELEMOTTE Marie 2003 0:49:78 300 ASL CANETONS LILLERS FRA
93 GHYS Chloé 2002 0:50:16 289 TRITONS LUMBRES FRA
94 BOROWSKI Léa 2003 0:50:27 286 CN DIVION FRA
95 LENCLOS Norah 2003 0:50:43 281 DAUPHINS ST-OMER FRA
96 OUKARACHE Lyna 2003 0:50:53 279 CALAIS NATATION FRA
97 LORGNIER Bérénice 2001 0:51:01 265 TRITONS LUMBRES FRA
98 DEBRIS Anaëlle 2002 0:51:10 262 BERCK NATATION FRA
99 CANONNE Louanne 2003 0:51:21 259 SC BOULOGNE-SUR-MER FRA
100 MARTIN-GARRIN Yoline 2002 0:51:50 251 STADE BÉTHUNE PÉLICAN CLUB FRA
101 JOLY Jennifer 2002 0:51:51 251 CN FREVENT FRA
102 MAGNIER Adele 2004 0:51:61 248 DAUPHINS ST-OMER FRA
103 DELANNOY Margot 2003 0:51:70 246 DAUPHINS ST-OMER FRA
104 RÉMY Capucine 2002 0:52:09 236 CN FREVENT FRA
105 DARON Juliette 2002 0:52:18 233 STADE BÉTHUNE PÉLICAN CLUB FRA
106 QUEVAT Elise 2002 0:52:37 228 ASL CANETONS LILLERS FRA
107 LEDUCQ Annette 2004 0:52:91 215 SC BOULOGNE-SUR-MER FRA
108 LUCAS Raphaëlle 2004 0:53:25 206 CALAIS NATATION FRA
109 BRIOUL Julie 2004 0:53:34 204 TRITONS LUMBRES FRA
110 SAULAY Baptistine 2003 0:53:60 198 RACING CLUB ARRAS FRA
111 PIJANOWSKI Alexia 2002 0:54:20 183 RACING CLUB ARRAS FRA
112 HAHAD Meriem 2003 0:54:49 177 BERCK NATATION FRA
113 PERRAULT Emma 2003 0:55:38 157 US MONTREUIL-SUR-MER FRA
114 QUEVA Joséphine 2003 0:56:76 129 US MONTREUIL-SUR-MER FRA
115 PAWLAK Ambre 2003 0:56:89 126 CN COURRIÈRES FRA
116 DELEAU Meline 2003 0:56:96 125 SC BOULOGNE-SUR-MER FRA
117 COULPIER Taïna 2004 0:57:36 117 BERCK NATATION FRA
118 LOUVET Héloïse 2003 0:59:27 85 CALAIS NATATION FRA
119 TARADEL Emilie 2002 1:00:50 66 HIPPO. MONTIGNY-EN-GOHELLE FRA
120 LE LAY Alix 2005 1:00:65 64 RACING CLUB ARRAS FRA
121 GUY Mylene 2004 1:00:77 63 SC BOULOGNE-SUR-MER FRA
122 HUCHIN Camille 2003 1:01:38 55 SC BOULOGNE-SUR-MER FRA
123 HOGUET Perrine 2004 1:02:32 43 CN FREVENT FRA
124 COCQUEMAN Marie 2004 1:02:44 42 CN FREVENT FRA
125 MORRESI Julie 2003 1:04:26 24 TRITONS LUMBRES FRA
126 WARNAULT Zoé 2002 1:04:36 23 CN FREVENT FRA
127 MARQUIS Faustine 2004 1:04:82 20 DAUPHINS ST-OMER FRA
128 REBAÏ Ines 2002 1:06:42 9 CALAIS NATATION FRA
129 SERDOBBEL Anaelle 2004 1:11:11 1 USO BRUAY-LA-BUISSIERE FRA
130 RODRIGUEZ Juliette 2005 1:12:67 1 US MONTREUIL-SUR-MER FRA
RACING CLUB ARRAS